Location: Zagreb
(45.8000°N, 16.0000°E)
Time: 23:15:42
(UTC+01:00)

Envisat - Visible Passes

Search period start: 01 December 2021 00:00
Search period end: 11 December 2021 00:00
Orbit: 764 x 766 km, 98.2° (Epoch: 01 December)

Date Brightness Start Highest point End Pass type
(mag) Time Alt. Az. Time Alt. Az. Time Alt. Az.
01 Dec 6.1 03:28:54 10° ENE 03:30:30 11° E 03:32:05 10° ESE visible
01 Dec 2.9 05:05:08 10° NNE 05:10:16 87° ESE 05:15:21 10° SSW visible
02 Dec 4.2 04:28:29 10° NNE 04:33:18 41° E 04:38:05 10° SSE visible
02 Dec 3.8 06:07:51 10° N 06:12:08 28° WNW 06:16:24 10° WSW visible
02 Dec 5.9 17:26:33 10° SW 17:29:41 16° W 17:32:50 10° NW visible
03 Dec 5.4 03:52:28 10° NE 03:56:09 20° E 03:59:48 10° SE visible
03 Dec 3.0 05:30:32 10° N 05:35:31 56° WNW 05:40:28 10° SSW visible
03 Dec 4.9 16:47:53 10° SSW 16:52:28 34° W 16:57:05 10° NNW visible
04 Dec 3.2 04:53:36 10° NNE 04:58:42 70° ESE 05:03:45 10° S visible
04 Dec 4.3 06:33:49 10° NNW 06:37:10 18° WNW 06:40:29 10° W visible
05 Dec 4.6 04:17:06 10° NNE 04:21:41 33° E 04:26:13 10° SSE visible
05 Dec 3.6 05:56:07 10° N 06:00:40 34° WNW 06:05:13 10° SW visible
05 Dec 5.8 17:14:16 10° SW 17:18:00 20° W 17:21:45 10° NW visible
06 Dec 5.7 03:41:25 10° NE 03:44:27 16° E 03:47:28 10° SE visible
06 Dec 2.9 05:18:55 10° N 05:23:59 71° WNW 05:29:02 10° SSW visible
07 Dec 3.6 04:42:06 10° NNE 04:47:07 55° E 04:52:05 10° S visible
07 Dec 4.1 06:21:56 10° NNW 06:25:44 22° WNW 06:29:32 10° WSW visible
07 Dec 6.2 17:41:49 10° WSW 17:43:38 12° W 17:45:28 10° WNW visible
08 Dec 5.0 04:05:46 10° NE 04:10:02 26° E 04:14:16 10° SSE visible
08 Dec 3.3 05:44:24 10° N 05:49:11 42° WNW 05:53:57 10° SW visible
08 Dec 5.5 17:02:09 10° SSW 17:06:20 25° W 17:10:32 10° NW visible
09 Dec 6.0 03:30:41 10° ENE 03:32:45 12° E 03:34:47 10° ESE visible
09 Dec 2.9 05:07:20 10° NNE 05:12:27 88° WNW 05:17:32 10° SSW visible
09 Dec 4.6 06:48:13 10° NNW 06:50:42 14° WNW 06:53:11 10° W visible
10 Dec 4.0 04:30:38 10° NNE 04:35:30 44° E 04:40:20 10° S visible
10 Dec 3.9 06:10:06 10° N 06:14:18 26° WNW 06:18:28 10° WSW visible
10 Dec 6.0 17:29:01 10° SW 17:31:55 15° W 17:34:49 10° NW visible
